Tracking 19575 objects as of 21-Feb-2019
HD Live streaming from Space Station
objects crossing your sky now

THORAD DELTA 1 DEB

Track THORAD DELTA 1 DEB now!
10-day predictions


NORAD ID: 8151
Int'l Code: 1974-089R
Perigee: 1,085.3 km
Apogee: 1,605.9 km
Inclination: 101.8 °
Period: 112.4 minutes
Semi major axis: 7716 km
RCS: 0.0604 m2 (small)
Launch date: November 15, 1974
Source: United States (US)
Launch site: AIR FORCE WESTERN TEST RANGE (AFWTR)

Note: This is SATELLITE DEBRIS
aabbcc
Your satellite tracking list
Your tracking list is empty




NASA's NSSDC Master Catalog

Two Line Element Set (TLE):
1  8151U 74089R   19051.81896976  .00000125  00000-0  59022-3 0  9992
2  8151 101.7969 355.6085 0337330  62.3178 353.1503 12.80746623 66661
Source of the keplerian elements: AFSPC